Вернуться в каталог

PICOSAT 3

АктивенНаукаLEO
NORAD 26091·PAYLOAD·🇺🇸 United States

Запущен Jan 27, 2000 с Vandenberg Space Force Base

Loading…

Ближайшие Пролёты (ближайшие 24 часа)

TLE

СвежийSource: Space-Track

Эпоха: Sep 13, 2026, 21:48 UTC

1 26091U 00004J   26256.90867316  .00001358  00000-0  29430-3 0  9991
2 26091 100.1919  29.7731 0024467  55.4158 304.9339 14.60241688403379

Отслеживайте PICOSAT 3 в реальном времени с AllMySat

Download on the App Store